Weather History for Baton Rouge, LA

Change the Weather History Date:

Wednesday, September 4, 2013

  Actual Average Record
Temperature  
Mean Temperature 83 °F 82 °F  
Max Temperature 93 °F 91 °F 104 °F (2000)
Min Temperature 73 °F 72 °F 58 °F (1952)
Degree Days  
Heating Degree Days 0 0  
Month to date heating degree days 0 0  
Since 1 July heating degree days 0 0  
Cooling Degree Days 18 16  
Month to date cooling degree days 77 67  
Year to date cooling degree days 2045 2228  
Growing Degree Days 33 (Base 50)    
Moisture  
Dew Point 74 °F    
Average Humidity 76    
Maximum Humidity 100    
Minimum Humidity 52    
Precipitation  
Precipitation 0.87 in 0.17 in 3.69 in (1988)
Month to date precipitation 1.36 0.67  
Year to date precipitation 54.02 42.38  
Snow  
Snow 0.00 in - - ()
Month to date snowfall 0.0  
Since 1 July snowfall 0.0  
Since 1 September snowfall 0.0  
Snow Depth 0.00 in    
Sea Level Pressure  
Sea Level Pressure 30.01 in    
Wind  
Wind Speed 2 mph (ESE)    
Max Wind Speed 16 mph    
Max Gust Speed 21 mph    
Visibility 8 miles    
Events Fog , Rain , Thunderstorm    
T = Trace of Precipitation, MM = Missing Value Source: NWS Daily Summary

Daily Weather History Graph

Daily Weather History Graph

Search for Another Location

Airport:

Trip Planner

Search our weather history database for the weather conditions in past years. The results will help you decide how hot, cold, wet, or windy it might be!

Date:

Astronomy

Sep. 04, 2013 Rise Set
Actual Time 6:43 AM CDT 7:23 PM CDT
Civil Twilight 6:18 AM CDT 7:47 PM CDT
Nautical Twilight 5:49 AM CDT 8:16 PM CDT
Astronomical Twilight 5:20 AM CDT 8:45 PM CDT
Moon 5:55 AM CDT (9/4) 6:45 PM CDT (9/4)
Length of Visible Light 13h 29m
Length of Day
12h 40m
Waning Crescent, 1% of the Moon is Illuminated
Sep 4
Waning Crescent
Sep 5
New
Sep 12
First Quarter
Sep 19
Full
Sep 26
Last Quarter

Hourly Weather History & Observations

Time (CDT) Temp. Heat Index Dew Point Humidity Pressure Visibility Wind Dir Wind Speed Gust Speed Precip Events Conditions
12:53 AM 77.0 °F - 75.0 °F 94% 29.97 in 7.0 mi Calm Calm - N/A   Clear
1:53 AM 75.0 °F - 73.9 °F 96% 29.96 in 6.0 mi ENE 4.6 mph - N/A   Clear
2:53 AM 73.9 °F - 73.0 °F 97% 29.96 in 6.0 mi NE 3.5 mph - N/A   Clear
3:53 AM 73.9 °F - 72.0 °F 93% 29.96 in 6.0 mi Calm Calm - N/A   Clear
4:53 AM 73.0 °F - 72.0 °F 96% 29.96 in 6.0 mi Calm Calm - N/A   Partly Cloudy
5:53 AM 73.0 °F - 72.0 °F 96% 29.98 in 6.0 mi Calm Calm - N/A   Partly Cloudy
6:53 AM 73.0 °F - 72.0 °F 96% 30.00 in 4.0 mi Calm Calm - N/A   Clear
7:53 AM 75.9 °F - 73.9 °F 94% 30.02 in 6.0 mi Calm Calm - N/A   Clear
8:53 AM 80.1 °F 84.5 °F 73.9 °F 81% 30.04 in 7.0 mi Calm Calm - N/A   Clear
9:53 AM 82.9 °F 90.2 °F 75.0 °F 77% 30.06 in 10.0 mi Calm Calm - N/A   Clear
10:53 AM 86.0 °F 93.8 °F 73.9 °F 67% 30.06 in 10.0 mi Calm Calm - N/A   Clear
11:53 AM 87.1 °F 96.3 °F 75.0 °F 67% 30.06 in 10.0 mi ENE 3.5 mph - N/A   Scattered Clouds
12:53 PM 90.0 °F 100.2 °F 75.0 °F 61% 30.04 in 10.0 mi SE 5.8 mph - N/A   Scattered Clouds
1:53 PM 91.0 °F 100.4 °F 73.9 °F 57% 30.01 in 10.0 mi Calm Calm - N/A   Scattered Clouds
2:53 PM 93.0 °F 103.2 °F 73.9 °F 54% 29.99 in 10.0 mi Variable 3.5 mph - N/A   Scattered Clouds
3:43 PM 84.2 °F 90.9 °F 73.4 °F 70% 29.99 in 7.0 mi SE 10.4 mph - 0.00 in Rain , Thunderstorm Heavy Thunderstorms and Rain
3:49 PM 80.6 °F 86.2 °F 75.2 °F 84% 30.00 in 1.0 mi SE 11.5 mph - 0.08 in Rain , Thunderstorm Heavy Thunderstorms and Rain
3:53 PM 79.0 °F - 75.9 °F 90% 30.01 in 1.0 mi SE 13.8 mph - 0.23 in Rain , Thunderstorm Heavy Thunderstorms and Rain
4:00 PM 77.0 °F - 73.4 °F 89% 30.01 in 0.5 mi SW 9.2 mph 20.7 mph 0.34 in Fog , Rain , Thunderstorm Heavy Thunderstorms and Rain
4:08 PM 75.2 °F - 71.6 °F 89% 30.00 in 5.0 mi SW 15.0 mph - 0.64 in Rain , Thunderstorm Thunderstorms and Rain
4:21 PM 77.0 °F - 71.6 °F 83% 29.99 in 10.0 mi West 9.2 mph - 0.64 in Rain , Thunderstorm Thunderstorms and Rain
4:53 PM 78.1 °F - 73.9 °F 87% 29.98 in 10.0 mi Calm Calm - 0.64 in   Clear
5:53 PM 78.1 °F - 75.0 °F 90% 30.01 in 10.0 mi East 6.9 mph - N/A   Clear
6:53 PM 79.0 °F - 73.0 °F 82% 30.02 in 10.0 mi East 3.5 mph - N/A   Scattered Clouds
7:53 PM 79.0 °F - 73.9 °F 84% 30.02 in 10.0 mi Calm Calm - N/A   Scattered Clouds
8:53 PM 77.0 °F - 73.9 °F 90% 30.03 in 10.0 mi Calm Calm - N/A   Clear
9:53 PM 75.9 °F - 73.9 °F 94% 30.05 in 10.0 mi Calm Calm - N/A   Clear
10:53 PM 75.9 °F - 73.9 °F 94% 30.05 in 9.0 mi Calm Calm - N/A   Clear
11:53 PM 75.9 °F - 73.9 °F 94% 30.05 in 10.0 mi Calm Calm - N/A   Clear